星链-5327 (STARLINK-5327 )

导读

STARLINK-5327是美国SpaceX公司星链(Starlink)星座中的一颗通信卫星,于2023年1月19日发射升空。作为星链全球高速互联网组网计划的组成部分,它运行在近地轨道,依托Ku/Ka波段通信、霍尔推进技术,为全球偏远地区、海洋等区域提供宽带互联网接入服务,单星设计寿命约5-7年,退役后会主动离轨再入大气层烧毁,是SpaceX打造全球低轨通信星座的量产卫星之一。

Basic Information
目录编号:
55291
目录名称:
STARLINK-5327
国际标识:
2023-010Y
轨道中心:
EARTH
卫星名称:
星链-5327
卫星全名:
星链-5327 (STARLINK-5327 )
卫星状态:
在轨 (已飞行1331 天)
发射日期:
2023-01-19 UTC
国别 :
美国 (US)
星等 :
--
This satellite is enrolled in the Space Conjunction Data Service (SCDS) and the current flight risk assessment level is: No High Risk
Orbit Information
数据来源 国际轨道数据
星历时间: 2026-09-10T19:12:29+0800
20小时前
查看轨道信息
半长轴: 6950.139km
偏心率: 0.0003088
轨道倾角: 70.002°
近地点辐角 283.214°
升交点赤经 278.699°
平近点角 76.867°
近地点: 569.855km
远地点: 574.149km
周期: 96.106分钟
每日圈数: 14.983475
Detailed Information
固有亮度:
5
最大亮度:
2.5
卫星平台:
Starlink v1.5
覆盖范围:
全球
运营商:
太空探索技术公司
运营商所在国:
美国
制造商(研发单位):
太空探索技术公司
制造商所在国:
美国
使用方式:
暂无
Satellite Introduction
星链(Starlink)计划是由太空探索技术公司(SpaceX)提出的一个巨型低轨卫星互联网星座项目,计划在2019年至2024年间在太空搭建由约1.2万颗卫星组成的“星链”网络,其中1584颗将部署在地球上空550千米处的近地轨道,并从2020年开始工作。该卫星仍在工作。
2D Orbit Map
3D Orbit Map
Orbit Altitude Analysis Chart
Orbit Inclination Analysis Chart
Orbit Comprehensive Analysis Chart
View Comprehensive Chart
Conjunction Data List
Event ID Objects TCA Miss Dist (km) Collision Risk Probability Collision Risk Index (CRI) Action
CDM_260913-071605-529106-175221
OBJECT T (61752)
2026-09-13T
07:16:38+0000
2.708 km
极远距离
1.553211E-6 低风险 0.39
CDM_260913-154904-996105-529122
2026-09-13T
15:49:28+0000
2.645 km
极远距离
1.043884E-6 低风险 0.35
Miss Distance Evolution Trend with All Objects
Collision Probability Evolution Trend with All Objects